Time,TemperatureF,DewpointF,PressureIn,WindDirection,WindDirectionDegrees,WindSpeedMPH,WindSpeedGustMPH,Humidity,HourlyPrecipIn,Conditions,Clouds,dailyrainin,SoftwareType,DateUTC
2013-01-25 00:03:00,53.0,52.0,30.28,NW,309,0.0,0.0,96,0.00,,,0.00,,2013-01-25 05:03:00,
2013-01-25 00:12:00,52.0,51.0,30.29,NW,309,0.0,0.0,96,0.00,,,0.00,,2013-01-25 05:12:00,
2013-01-25 00:22:00,52.0,51.0,30.29,NW,309,0.0,0.0,96,0.00,,,0.00,,2013-01-25 05:22:00,
2013-01-25 00:32:00,52.0,51.0,30.29,NW,309,0.0,0.0,96,0.00,,,0.00,,2013-01-25 05:32:00,
2013-01-25 00:43:00,52.0,51.0,30.29,NW,309,0.0,0.0,96,0.00,,,0.00,,2013-01-25 05:43:00,
2013-01-25 00:52:00,52.0,51.0,30.29,NW,309,0.0,0.0,96,0.00,,,0.00,,2013-01-25 05:52:00,
2013-01-25 01:02:00,52.0,51.0,30.29,NW,309,0.0,0.0,96,0.00,,,0.00,,2013-01-25 06:02:00,
2013-01-25 01:11:00,52.0,51.0,30.29,NW,309,0.0,0.0,96,0.00,,,0.00,,2013-01-25 06:11:00,
2013-01-25 01:21:00,53.0,52.0,30.29,NW,309,0.0,0.0,96,0.00,,,0.00,,2013-01-25 06:21:00,
2013-01-25 01:32:00,53.0,52.0,30.29,NW,309,0.0,0.0,96,0.00,,,0.00,,2013-01-25 06:32:00,
2013-01-25 01:42:00,52.0,51.0,30.29,NW,309,0.0,0.0,96,0.00,,,0.00,,2013-01-25 06:42:00,
2013-01-25 01:52:00,52.0,51.0,30.29,NW,309,0.0,0.0,96,0.00,,,0.00,,2013-01-25 06:52:00,
2013-01-25 02:02:00,52.0,51.0,30.29,NW,309,0.0,0.0,96,0.00,,,0.00,,2013-01-25 07:02:00,
2013-01-25 02:11:00,52.0,51.0,30.27,NW,309,0.0,0.0,96,0.00,,,0.00,,2013-01-25 07:11:00,
2013-01-25 02:22:00,52.0,51.0,30.27,NW,309,0.0,0.0,96,0.00,,,0.00,,2013-01-25 07:22:00,
2013-01-25 02:32:00,52.0,51.0,30.27,NW,309,0.0,0.0,96,0.00,,,0.00,,2013-01-25 07:32:00,
2013-01-25 02:42:00,52.0,51.0,30.27,NW,309,0.0,0.0,96,0.00,,,0.00,,2013-01-25 07:42:00,
2013-01-25 02:52:00,52.0,51.0,30.26,NW,309,0.0,0.0,96,0.00,,,0.00,,2013-01-25 07:52:00,
2013-01-25 03:02:00,52.0,51.0,30.26,NW,309,0.0,1.0,96,0.00,,,0.00,,2013-01-25 08:02:00,
2013-01-25 03:11:00,53.0,52.0,30.25,NW,309,0.0,0.0,96,0.00,,,0.00,,2013-01-25 08:11:00,
2013-01-25 03:21:00,53.0,52.0,30.25,NW,309,0.0,0.0,96,0.00,,,0.00,,2013-01-25 08:21:00,
2013-01-25 03:32:00,52.0,51.0,30.25,NW,309,0.0,0.0,96,0.00,,,0.00,,2013-01-25 08:32:00,
2013-01-25 03:41:00,52.0,51.0,30.25,NW,309,0.0,0.0,96,0.00,,,0.00,,2013-01-25 08:41:00,
2013-01-25 03:52:00,52.0,51.0,30.24,NW,309,0.0,0.0,96,0.00,,,0.00,,2013-01-25 08:52:00,
2013-01-25 04:02:00,51.0,50.0,30.24,NW,309,0.0,0.0,96,0.00,,,0.00,,2013-01-25 09:02:00,
2013-01-25 04:11:00,52.0,51.0,30.25,NW,309,0.0,0.0,96,0.00,,,0.00,,2013-01-25 09:11:00,
2013-01-25 04:21:00,52.0,51.0,30.25,NW,309,0.0,0.0,96,0.00,,,0.00,,2013-01-25 09:21:00,
2013-01-25 04:32:00,52.0,51.0,30.25,NW,309,0.0,0.0,97,0.00,,,0.00,,2013-01-25 09:32:00,
2013-01-25 04:42:00,52.0,51.0,30.25,NW,309,0.0,0.0,97,0.00,,,0.00,,2013-01-25 09:42:00,
2013-01-25 04:52:00,52.0,51.0,30.25,NW,309,0.0,0.0,97,0.00,,,0.00,,2013-01-25 09:52:00,
2013-01-25 05:02:00,52.0,51.0,30.25,NW,309,0.0,0.0,97,0.00,,,0.00,,2013-01-25 10:02:00,
2013-01-25 05:12:00,53.0,52.0,30.25,NW,309,0.0,0.0,96,0.00,,,0.00,,2013-01-25 10:12:00,
2013-01-25 05:21:00,53.0,52.0,30.25,NW,309,0.0,0.0,96,0.00,,,0.00,,2013-01-25 10:21:00,
2013-01-25 05:32:00,53.0,52.0,30.26,NW,309,0.0,0.0,97,0.00,,,0.00,,2013-01-25 10:32:00,
2013-01-25 05:42:00,53.0,52.0,30.26,NW,309,0.0,0.0,97,0.00,,,0.00,,2013-01-25 10:42:00,
2013-01-25 05:52:00,52.0,51.0,30.26,NW,309,0.0,0.0,96,0.00,,,0.00,,2013-01-25 10:52:00,
2013-01-25 06:02:00,52.0,51.0,30.26,NW,309,0.0,0.0,97,0.00,,,0.00,,2013-01-25 11:02:00,
2013-01-25 06:11:00,52.0,51.0,30.26,NW,309,0.0,0.0,97,0.00,,,0.00,,2013-01-25 11:11:00,
2013-01-25 06:22:00,52.0,51.0,30.26,NW,309,0.0,0.0,97,0.00,,,0.00,,2013-01-25 11:22:00,
2013-01-25 06:32:00,52.0,51.0,30.27,NW,309,0.0,0.0,97,0.00,,,0.00,,2013-01-25 11:32:00,
2013-01-25 06:42:00,52.0,51.0,30.27,NW,309,0.0,0.0,97,0.00,,,0.00,,2013-01-25 11:42:00,
2013-01-25 06:52:00,52.0,51.0,30.28,NW,309,0.0,0.0,97,0.00,,,0.00,,2013-01-25 11:52:00,
2013-01-25 07:02:00,52.0,51.0,30.28,NW,309,0.0,0.0,97,0.00,,,0.00,,2013-01-25 12:02:00,
2013-01-25 07:12:00,52.0,51.0,30.28,NW,309,0.0,0.0,97,0.00,,,0.00,,2013-01-25 12:12:00,
2013-01-25 07:22:00,53.0,52.0,30.28,NW,309,0.0,0.0,97,0.00,,,0.00,,2013-01-25 12:22:00,
2013-01-25 07:32:00,52.0,51.0,30.28,NW,309,0.0,0.0,97,0.00,,,0.00,,2013-01-25 12:32:00,
2013-01-25 07:42:00,52.0,51.0,30.28,NW,309,0.0,0.0,97,0.00,,,0.00,,2013-01-25 12:42:00,
2013-01-25 07:53:00,52.0,51.0,30.28,NW,309,0.0,0.0,97,0.00,,,0.00,,2013-01-25 12:53:00,
2013-01-25 08:02:00,52.0,51.0,30.29,NW,309,0.0,0.0,97,0.00,,,0.00,,2013-01-25 13:02:00,
2013-01-25 08:12:00,52.0,51.0,30.29,NW,309,0.0,0.0,97,0.00,,,0.00,,2013-01-25 13:12:00,
2013-01-25 08:22:00,52.0,51.0,30.29,NW,309,0.0,0.0,97,0.00,,,0.00,,2013-01-25 13:22:00,
2013-01-25 08:32:00,52.0,51.0,30.29,NW,309,0.0,0.0,97,0.00,,,0.00,,2013-01-25 13:32:00,
2013-01-25 08:42:00,52.0,51.0,30.29,NW,309,0.0,0.0,97,0.00,,,0.00,,2013-01-25 13:42:00,
2013-01-25 08:53:00,53.0,52.0,30.29,NW,309,0.0,0.0,97,0.00,,,0.00,,2013-01-25 13:53:00,
2013-01-25 09:03:00,55.0,54.0,30.30,NW,309,0.0,0.0,97,0.00,,,0.00,,2013-01-25 14:03:00,
2013-01-25 09:12:00,55.0,54.0,30.30,NW,309,0.0,0.0,97,0.00,,,0.00,,2013-01-25 14:12:00,
2013-01-25 09:23:00,56.0,55.0,30.30,NW,309,0.0,0.0,97,0.00,,,0.00,,2013-01-25 14:23:00,
2013-01-25 09:33:00,57.0,56.0,30.30,NW,309,0.0,0.0,97,0.00,,,0.00,,2013-01-25 14:33:00,
2013-01-25 09:42:00,57.0,56.0,30.30,NW,309,0.0,0.0,97,0.00,,,0.00,,2013-01-25 14:42:00,
2013-01-25 09:53:00,58.0,57.0,30.30,NW,319,0.0,1.0,97,0.00,,,0.00,,2013-01-25 14:53:00,
2013-01-25 10:02:00,60.0,59.0,30.31,NE,55,0.0,3.0,95,0.00,,,0.00,,2013-01-25 15:02:00,
2013-01-25 10:12:00,60.0,59.0,30.31,NE,55,0.0,3.0,95,0.00,,,0.00,,2013-01-25 15:12:00,
2013-01-25 10:22:00,61.0,58.0,30.31,East,90,0.0,1.0,91,0.00,,,0.00,,2013-01-25 15:22:00,
2013-01-25 10:32:00,63.0,59.0,30.31,East,91,0.0,1.0,87,0.00,,,0.00,,2013-01-25 15:32:00,
2013-01-25 10:42:00,63.0,59.0,30.31,East,91,0.0,1.0,87,0.00,,,0.00,,2013-01-25 15:42:00,
2013-01-25 10:53:00,65.0,60.0,30.30,East,86,0.0,3.0,85,0.00,,,0.00,,2013-01-25 15:53:00,
2013-01-25 11:03:00,66.0,59.0,30.31,SSE,160,0.0,4.0,78,0.00,,,0.00,,2013-01-25 16:03:00,
2013-01-25 11:12:00,66.0,59.0,30.31,SSE,160,0.0,4.0,78,0.00,,,0.00,,2013-01-25 16:12:00,
2013-01-25 11:23:00,68.0,58.0,30.30,SSE,166,0.0,3.0,71,0.00,,,0.00,,2013-01-25 16:23:00,
2013-01-25 11:33:00,69.0,56.0,30.30,East,92,1.0,4.0,63,0.00,,,0.00,,2013-01-25 16:33:00,
2013-01-25 11:43:00,69.0,56.0,30.30,East,92,1.0,4.0,63,0.00,,,0.00,,2013-01-25 16:43:00,
2013-01-25 11:53:00,70.0,54.0,30.29,East,82,2.0,4.0,57,0.00,,,0.00,,2013-01-25 16:53:00,
2013-01-25 12:02:00,72.0,55.0,30.29,East,83,1.0,4.0,55,0.00,,,0.00,,2013-01-25 17:02:00,
2013-01-25 12:12:00,72.0,55.0,30.29,East,83,1.0,4.0,55,0.00,,,0.00,,2013-01-25 17:12:00,
2013-01-25 12:22:00,72.0,51.0,30.28,SSE,152,0.0,5.0,47,0.00,,,0.00,,2013-01-25 17:22:00,
2013-01-25 12:33:00,71.0,50.0,30.27,SSE,153,2.0,3.0,47,0.00,,,0.00,,2013-01-25 17:33:00,
2013-01-25 12:43:00,71.0,50.0,30.27,SSE,153,2.0,3.0,47,0.00,,,0.00,,2013-01-25 17:43:00,
2013-01-25 12:53:00,73.0,50.0,30.26,SE,146,0.0,5.0,44,0.00,,,0.00,,2013-01-25 17:53:00,
2013-01-25 13:03:00,70.0,48.0,30.25,SSW,196,0.0,5.0,46,0.00,,,0.00,,2013-01-25 18:03:00,
2013-01-25 13:12:00,70.0,48.0,30.25,SSW,196,0.0,5.0,46,0.00,,,0.00,,2013-01-25 18:12:00,
2013-01-25 13:23:00,72.0,50.0,30.25,ENE,75,1.0,3.0,46,0.00,,,0.00,,2013-01-25 18:23:00,
2013-01-25 13:33:00,73.0,50.0,30.24,ESE,117,1.0,5.0,44,0.00,,,0.00,,2013-01-25 18:33:00,
2013-01-25 13:42:00,73.0,50.0,30.24,ESE,117,1.0,5.0,44,0.00,,,0.00,,2013-01-25 18:42:00,
2013-01-25 13:52:00,72.0,49.0,30.24,SSE,155,1.0,4.0,45,0.00,,,0.00,,2013-01-25 18:52:00,
2013-01-25 14:03:00,72.0,50.0,30.23,SSE,147,1.0,3.0,46,0.00,,,0.00,,2013-01-25 19:03:00,
2013-01-25 14:12:00,72.0,50.0,30.23,SSE,147,1.0,3.0,46,0.00,,,0.00,,2013-01-25 19:12:00,
2013-01-25 14:22:00,72.0,49.0,30.22,South,175,0.0,4.0,45,0.00,,,0.00,,2013-01-25 19:22:00,
2013-01-25 14:32:00,71.0,50.0,30.22,SSE,147,0.0,5.0,48,0.00,,,0.00,,2013-01-25 19:32:00,
2013-01-25 14:42:00,71.0,50.0,30.22,SSE,147,0.0,5.0,48,0.00,,,0.00,,2013-01-25 19:42:00,
2013-01-25 14:53:00,71.0,50.0,30.21,SE,136,0.0,3.0,47,0.00,,,0.00,,2013-01-25 19:53:00,
2013-01-25 15:03:00,71.0,50.0,30.20,SE,143,2.0,5.0,48,0.00,,,0.00,,2013-01-25 20:03:00,
2013-01-25 15:12:00,71.0,50.0,30.20,SE,143,2.0,5.0,48,0.00,,,0.00,,2013-01-25 20:12:00,
2013-01-25 15:23:00,71.0,50.0,30.20,South,171,0.0,3.0,48,0.00,,,0.00,,2013-01-25 20:23:00,
2013-01-25 15:32:00,70.0,51.0,30.19,WNW,300,0.0,5.0,51,0.00,,,0.00,,2013-01-25 20:32:00,
2013-01-25 15:42:00,70.0,51.0,30.19,WNW,300,0.0,5.0,51,0.00,,,0.00,,2013-01-25 20:42:00,
2013-01-25 15:53:00,69.0,50.0,30.19,WNW,300,1.0,6.0,50,0.00,,,0.00,,2013-01-25 20:53:00,
2013-01-25 16:02:00,69.0,52.0,30.19,WNW,293,0.0,6.0,54,0.00,,,0.00,,2013-01-25 21:02:00,
2013-01-25 16:12:00,69.0,52.0,30.19,WNW,293,0.0,6.0,54,0.00,,,0.00,,2013-01-25 21:12:00,
2013-01-25 16:23:00,69.0,52.0,30.19,West,277,1.0,4.0,54,0.00,,,0.00,,2013-01-25 21:23:00,
2013-01-25 16:33:00,69.0,53.0,30.19,WSW,249,0.0,5.0,56,0.00,,,0.00,,2013-01-25 21:33:00,
2013-01-25 16:42:00,69.0,53.0,30.19,WSW,249,0.0,5.0,56,0.00,,,0.00,,2013-01-25 21:42:00,
2013-01-25 16:52:00,68.0,51.0,30.19,West,263,2.0,5.0,54,0.00,,,0.00,,2013-01-25 21:52:00,
2013-01-25 17:03:00,68.0,50.0,30.19,WNW,287,2.0,5.0,53,0.00,,,0.00,,2013-01-25 22:03:00,
2013-01-25 17:12:00,68.0,50.0,30.19,WNW,287,2.0,5.0,53,0.00,,,0.00,,2013-01-25 22:12:00,
2013-01-25 17:22:00,67.0,49.0,30.20,WNW,299,0.0,6.0,53,0.00,,,0.00,,2013-01-25 22:22:00,
2013-01-25 17:33:00,67.0,50.0,30.20,West,276,1.0,5.0,54,0.00,,,0.00,,2013-01-25 22:33:00,
2013-01-25 17:42:00,67.0,50.0,30.20,West,276,1.0,5.0,54,0.00,,,0.00,,2013-01-25 22:42:00,
2013-01-25 17:53:00,66.0,51.0,30.20,West,259,1.0,4.0,58,0.00,,,0.00,,2013-01-25 22:53:00,
2013-01-25 18:02:00,65.0,52.0,30.20,West,259,1.0,4.0,63,0.00,,,0.00,,2013-01-25 23:02:00,
2013-01-25 18:12:00,65.0,52.0,30.20,West,259,1.0,4.0,63,0.00,,,0.00,,2013-01-25 23:12:00,
2013-01-25 18:22:00,64.0,54.0,30.21,West,259,0.0,1.0,69,0.00,,,0.00,,2013-01-25 23:22:00,
2013-01-25 18:32:00,63.0,54.0,30.21,NW,305,0.0,2.0,73,0.00,,,0.00,,2013-01-25 23:32:00,
2013-01-25 18:42:00,63.0,54.0,30.21,NW,305,0.0,2.0,73,0.00,,,0.00,,2013-01-25 23:42:00,
2013-01-25 18:53:00,61.0,53.0,30.21,NW,305,0.0,0.0,76,0.00,,,0.00,,2013-01-25 23:53:00,
2013-01-25 19:02:00,60.0,53.0,30.21,NW,305,0.0,0.0,79,0.00,,,0.00,,2013-01-26 00:02:00,
2013-01-25 19:11:00,60.0,53.0,30.21,NW,305,0.0,0.0,79,0.00,,,0.00,,2013-01-26 00:11:00,
2013-01-25 19:22:00,60.0,54.0,30.21,NW,304,0.0,0.0,82,0.00,,,0.00,,2013-01-26 00:22:00,
2013-01-25 19:32:00,59.0,54.0,30.22,NW,305,0.0,0.0,84,0.00,,,0.00,,2013-01-26 00:32:00,
2013-01-25 19:42:00,59.0,54.0,30.22,NW,305,0.0,0.0,84,0.00,,,0.00,,2013-01-26 00:42:00,
2013-01-25 19:53:00,58.0,54.0,30.22,NW,305,0.0,0.0,85,0.00,,,0.00,,2013-01-26 00:53:00,
2013-01-25 20:02:00,59.0,55.0,30.22,NW,304,0.0,0.0,88,0.00,,,0.00,,2013-01-26 01:02:00,
2013-01-25 20:11:00,59.0,55.0,30.22,NW,304,0.0,0.0,88,0.00,,,0.00,,2013-01-26 01:11:00,
2013-01-25 20:22:00,58.0,54.0,30.21,NW,305,0.0,0.0,88,0.00,,,0.00,,2013-01-26 01:22:00,
2013-01-25 20:32:00,58.0,55.0,30.22,NW,304,0.0,0.0,89,0.00,,,0.00,,2013-01-26 01:32:00,
2013-01-25 20:42:00,58.0,55.0,30.22,NW,304,0.0,0.0,89,0.00,,,0.00,,2013-01-26 01:42:00,
2013-01-25 20:52:00,57.0,54.0,30.22,NW,305,0.0,0.0,90,0.00,,,0.00,,2013-01-26 01:52:00,
2013-01-25 21:01:00,57.0,54.0,30.22,NW,305,0.0,0.0,91,0.00,,,0.00,,2013-01-26 02:01:00,
2013-01-25 21:11:00,57.0,54.0,30.22,NW,305,0.0,0.0,91,0.00,,,0.00,,2013-01-26 02:11:00,
2013-01-25 21:22:00,56.0,54.0,30.22,NW,304,0.0,0.0,92,0.00,,,0.00,,2013-01-26 02:22:00,
2013-01-25 21:32:00,55.0,53.0,30.21,NW,304,0.0,0.0,93,0.00,,,0.00,,2013-01-26 02:32:00,
2013-01-25 21:42:00,55.0,53.0,30.21,NW,304,0.0,0.0,93,0.00,,,0.00,,2013-01-26 02:42:00,
2013-01-25 21:52:00,55.0,53.0,30.21,NW,305,0.0,0.0,94,0.00,,,0.00,,2013-01-26 02:52:00,
2013-01-25 22:02:00,55.0,53.0,30.22,NW,305,0.0,0.0,94,0.00,,,0.00,,2013-01-26 03:02:00,
2013-01-25 22:11:00,55.0,53.0,30.22,NW,305,0.0,0.0,94,0.00,,,0.00,,2013-01-26 03:11:00,
2013-01-25 22:22:00,55.0,53.0,30.22,NW,305,0.0,1.0,94,0.00,,,0.00,,2013-01-26 03:22:00,
2013-01-25 22:32:00,55.0,54.0,30.22,NW,305,0.0,0.0,95,0.00,,,0.00,,2013-01-26 03:32:00,
2013-01-25 22:43:00,55.0,54.0,30.22,NW,305,0.0,0.0,95,0.00,,,0.00,,2013-01-26 03:43:00,
2013-01-25 22:52:00,55.0,54.0,30.22,NW,305,0.0,0.0,95,0.00,,,0.00,,2013-01-26 03:52:00,
2013-01-25 23:02:00,54.0,53.0,30.22,NW,305,0.0,0.0,95,0.00,,,0.00,,2013-01-26 04:02:00,
2013-01-25 23:12:00,54.0,53.0,30.22,NW,305,0.0,0.0,95,0.00,,,0.00,,2013-01-26 04:12:00,
2013-01-25 23:21:00,54.0,53.0,30.22,NW,305,0.0,0.0,95,0.00,,,0.00,,2013-01-26 04:21:00,
2013-01-25 23:32:00,54.0,53.0,30.22,NW,304,0.0,0.0,95,0.00,,,0.00,,2013-01-26 04:32:00,
2013-01-25 23:42:00,54.0,53.0,30.22,NW,304,0.0,0.0,95,0.00,,,0.00,,2013-01-26 04:42:00,
2013-01-25 23:52:00,54.0,53.0,30.22,NW,304,0.0,0.0,95,0.00,,,0.00,,2013-01-26 04:52:00,